SB KEPS @ AMSAT $ORB09323.O Orbital Elements 09323.OSCAR
HR AMSAT ORBITAL ELEMENTS FOR OSCAR SATELLITES FROM WA5QGD FORT WORTH,TX November 19, 2009 Send Subscribe/unsubscribe to KEPS at http://www.amsat.org/mailman/listinfo/keps BID: ORB09323.O TO ALL RADIO AMATEURS BT
Satellite: AO-07 Catalog number: 07530 Epoch time: 09323.63134309 Element set: 634 Inclination: 101.4165 deg RA of node: 342.5404 deg Eccentricity: 0.0011957 Arg of perigee: 325.2288 deg Mean anomaly: 034.8003 deg Mean motion: 12.53576964 rev/day Decay rate: -2.7e-07 rev/day^2 Epoch rev: 60219 Checksum: 279
Satellite: FO-29 Catalog number: 24278 Epoch time: 09322.63629041 Element set: 178 Inclination: 098.5215 deg RA of node: 175.7262 deg Eccentricity: 0.0350021 Arg of perigee: 310.1093 deg Mean anomaly: 046.9848 deg Mean motion: 13.52946543 rev/day Decay rate: -4.9e-07 rev/day^2 Epoch rev: 65463 Checksum: 315
Satellite: SO-33 Catalog number: 25509 Epoch time: 09323.85355155 Element set: 589 Inclination: 031.4348 deg RA of node: 252.2646 deg Eccentricity: 0.0354730 Arg of perigee: 259.5277 deg Mean anomaly: 096.5235 deg Mean motion: 14.28270404 rev/day Decay rate: -1.39e-06 rev/day^2 Epoch rev: 57810 Checksum: 319
Satellite: RS-22 Catalog number: 27939 Epoch time: 09322.66413163 Element set: 941 Inclination: 097.9184 deg RA of node: 191.6984 deg Eccentricity: 0.0013808 Arg of perigee: 009.4872 deg Mean anomaly: 350.6587 deg Mean motion: 14.63357652 rev/day Decay rate: 1.30e-06 rev/day^2 Epoch rev: 32816 Checksum: 330
Satellite: VO-52 Catalog number: 28650 Epoch time: 09322.84009407 Element set: 0370 Inclination: 097.7241 deg RA of node: 019.1448 deg Eccentricity: 0.0026072 Arg of perigee: 243.2942 deg Mean anomaly: 116.5589 deg Mean motion: 14.81641773 rev/day Decay rate: -1.94e-06 rev/day^2 Epoch rev: 24554 Checksum: 308
Satellite: SO-67 Catalog number: 35870 Epoch time: 09323.76365821 Element set: 187 Inclination: 097.3643 deg RA of node: 012.6286 deg Eccentricity: 0.0013202 Arg of perigee: 075.0135 deg Mean anomaly: 033.0416 deg Mean motion: 15.22857633 rev/day Decay rate: 6.50e-06 rev/day^2 Epoch rev: 959 Checksum: 296
/EX SB KEPS @ AMSAT $ORB09323.D Orbital Elements 09323.MICROS
HR AMSAT ORBITAL ELEMENTS FOR THE MICROSATS FROM WA5QGD FORT WORTH,TX November 19, 2009 Send Subscribe/unsubscribe to KEPS at http://www.amsat.org/mailman/listinfo/keps BID: ORB09323.D TO ALL RADIO AMATEURS BT
Satellite: AO-16 Catalog number: 20439 Epoch time: 09322.85041992 Element set: 753 Inclination: 098.3022 deg RA of node: 284.3905 deg Eccentricity: 0.0011893 Arg of perigee: 071.9966 deg Mean anomaly: 288.2505 deg Mean motion: 14.31839726 rev/day Decay rate: 3.2e-07 rev/day^2 Epoch rev: 3528 Checksum: 317
Satellite: LO-19 Catalog number: 20442 Epoch time: 09322.67254809 Element set: 665 Inclination: 098.2635 deg RA of node: 290.8782 deg Eccentricity: 0.0012847 Arg of perigee: 068.7540 deg Mean anomaly: 291.5012 deg Mean motion: 14.32072761 rev/day Decay rate: -1.11e-06 rev/day^2 Epoch rev: 3542 Checksum: 298
Satellite: AO-27 Catalog number: 22825 Epoch time: 09323.90843951 Element set: 388 Inclination: 098.4600 deg RA of node: 272.5824 deg Eccentricity: 0.0009016 Arg of perigee: 160.4348 deg Mean anomaly: 199.7233 deg Mean motion: 14.29278392 rev/day Decay rate: -6.5e-07 rev/day^2 Epoch rev: 84215 Checksum: 326
Satellite: IO-26 Catalog number: 22826 Epoch time: 09322.82126050 Element set: 0124 Inclination: 098.4507 deg RA of node: 272.2105 deg Eccentricity: 0.0008971 Arg of perigee: 159.0549 deg Mean anomaly: 201.1003 deg Mean motion: 14.29532194 rev/day Decay rate: 2.0e-07 rev/day^2 Epoch rev: 84210 Checksum: 260
Satellite: GO-32 Catalog number: 25397 Epoch time: 09322.74622702 Element set: 0044 Inclination: 098.3180 deg RA of node: 336.7530 deg Eccentricity: 0.0001655 Arg of perigee: 129.6332 deg Mean anomaly: 230.4990 deg Mean motion: 14.23165961 rev/day Decay rate: -1.41e-06 rev/day^2 Epoch rev: 59011 Checksum: 282
Satellite: NO-44 Catalog number: 26931 Epoch time: 09322.76087227 Element set: 316 Inclination: 067.0543 deg RA of node: 026.1151 deg Eccentricity: 0.0007022 Arg of perigee: 270.8203 deg Mean anomaly: 089.2097 deg Mean motion: 14.29574478 rev/day Decay rate: 2.58e-06 rev/day^2 Epoch rev: 42467 Checksum: 302
Satellite: SO-50 Catalog number: 27607 Epoch time: 09322.94083483 Element set: 0037 Inclination: 064.5580 deg RA of node: 275.0809 deg Eccentricity: 0.0048824 Arg of perigee: 164.7565 deg Mean anomaly: 195.5009 deg Mean motion: 14.71474640 rev/day Decay rate: -9.5e-07 rev/day^2 Epoch rev: 37144 Checksum: 323
Satellite: CO-55 Catalog number: 27844 Epoch time: 09323.50120861 Element set: 715 Inclination: 098.7125 deg RA of node: 330.4806 deg Eccentricity: 0.0010644 Arg of perigee: 057.8043 deg Mean anomaly: 302.4170 deg Mean motion: 14.20667678 rev/day Decay rate: 6.5e-07 rev/day^2 Epoch rev: 33131 Checksum: 283
Satellite: CO-57 Catalog number: 27848 Epoch time: 09322.51443068 Element set: 0667 Inclination: 098.7172 deg RA of node: 328.5759 deg Eccentricity: 0.0010690 Arg of perigee: 064.1827 deg Mean anomaly: 296.0448 deg Mean motion: 14.20465657 rev/day Decay rate: 5.0e-07 rev/day^2 Epoch rev: 33113 Checksum: 324
Satellite: AO-51 Catalog number: 28375 Epoch time: 09323.54073303 Element set: 537 Inclination: 098.0536 deg RA of node: 324.1117 deg Eccentricity: 0.0084997 Arg of perigee: 014.0136 deg Mean anomaly: 346.3385 deg Mean motion: 14.40659431 rev/day Decay rate: 2.2e-07 rev/day^2 Epoch rev: 28332 Checksum: 292
Satellite: CO-56 Catalog number: 28941 Epoch time: 09297.68475575 Element set: 556 Inclination: 098.0955 deg RA of node: 138.9518 deg Eccentricity: 0.0011688 Arg of perigee: 319.8691 deg Mean anomaly: 040.7485 deg Mean motion: 16.46998778 rev/day Decay rate: 1.4491492e-01 rev/day^2 Epoch rev: 20790 Checksum: 407
Satellite: GENESAT1 Catalog number: 29655 Epoch time: 09322.30832141 Element set: 0869 Inclination: 040.0230 deg RA of node: 295.1476 deg Eccentricity: 0.0004956 Arg of perigee: 238.0227 deg Mean anomaly: 122.0107 deg Mean motion: 15.69759391 rev/day Decay rate: 2.5936e-04 rev/day^2 Epoch rev: 16666 Checksum: 305
Satellite: CP3 Catalog number: 31129 Epoch time: 09323.68821007 Element set: 336 Inclination: 097.9704 deg RA of node: 009.1616 deg Eccentricity: 0.0102415 Arg of perigee: 162.9367 deg Mean anomaly: 197.5308 deg Mean motion: 14.52181848 rev/day Decay rate: 1.16e-06 rev/day^2 Epoch rev: 13745 Checksum: 298
Satellite: CO-65 Catalog number: 32785 Epoch time: 09322.52061831 Element set: 0535 Inclination: 097.9282 deg RA of node: 025.0581 deg Eccentricity: 0.0013924 Arg of perigee: 249.1938 deg Mean anomaly: 110.7789 deg Mean motion: 14.81542020 rev/day Decay rate: -1.4e-07 rev/day^2 Epoch rev: 08429 Checksum: 304
Satellite: KKS-1 Catalog number: 33493 Epoch time: 09323.72557453 Element set: 955 Inclination: 098.0697 deg RA of node: 076.7379 deg Eccentricity: 0.0021212 Arg of perigee: 098.2703 deg Mean anomaly: 262.0925 deg Mean motion: 14.80777666 rev/day Decay rate: 4.01e-06 rev/day^2 Epoch rev: 4448 Checksum: 325
Satellite: SOHLA-1 Catalog number: 33496 Epoch time: 09323.77675025 Element set: 919 Inclination: 098.0488 deg RA of node: 070.7535 deg Eccentricity: 0.0007214 Arg of perigee: 140.3294 deg Mean anomaly: 219.8446 deg Mean motion: 14.69455224 rev/day Decay rate: 7.0e-08 rev/day^2 Epoch rev: 4412 Checksum: 308
/EX SB KEPS @ AMSAT $ORB09323.W Orbital Elements 09323.WEATHER
HR AMSAT ORBITAL ELEMENTS FOR WEATHER SATELLITES FROM WA5QGD FORT WORTH,TX November 19, 2009 Send Subscribe/unsubscribe to KEPS at http://www.amsat.org/mailman/listinfo/keps BID: ORB09323.W TO ALL RADIO AMATEURS BT
Satellite: NOAA-10 Catalog number: 16969 Epoch time: 09322.65221479 Element set: 0841 Inclination: 098.6788 deg RA of node: 348.3674 deg Eccentricity: 0.0012977 Arg of perigee: 104.6931 deg Mean anomaly: 255.5691 deg Mean motion: 14.27399441 rev/day Decay rate: 3.3e-07 rev/day^2 Epoch rev: 20554 Checksum: 338
Satellite: NOAA-11 Catalog number: 19531 Epoch time: 09322.79220925 Element set: 0855 Inclination: 098.7811 deg RA of node: 050.3255 deg Eccentricity: 0.0012119 Arg of perigee: 030.6295 deg Mean anomaly: 329.5584 deg Mean motion: 14.14908472 rev/day Decay rate: 2.63e-06 rev/day^2 Epoch rev: 09138 Checksum: 302
Satellite: NOAA-12 Catalog number: 21263 Epoch time: 09322.72710985 Element set: 0341 Inclination: 098.7709 deg RA of node: 330.8694 deg Eccentricity: 0.0013253 Arg of perigee: 059.9375 deg Mean anomaly: 300.3105 deg Mean motion: 14.25602369 rev/day Decay rate: 5.6e-07 rev/day^2 Epoch rev: 96241 Checksum: 299
Satellite: MET-3/5 Catalog number: 21655 Epoch time: 09322.89821046 Element set: 0785 Inclination: 082.5504 deg RA of node: 097.2102 deg Eccentricity: 0.0013684 Arg of perigee: 150.1608 deg Mean anomaly: 210.0294 deg Mean motion: 13.17021073 rev/day Decay rate: 5.1e-07 rev/day^2 Epoch rev: 87799 Checksum: 289
Satellite: MET-2/21 Catalog number: 22782 Epoch time: 09322.78631457 Element set: 0623 Inclination: 082.5494 deg RA of node: 059.3688 deg Eccentricity: 0.0020906 Arg of perigee: 273.6149 deg Mean anomaly: 086.2632 deg Mean motion: 13.83641781 rev/day Decay rate: 4.4e-07 rev/day^2 Epoch rev: 81898 Checksum: 336
Satellite: OKEAN-4 Catalog number: 23317 Epoch time: 09322.70853704 Element set: 0078 Inclination: 082.5409 deg RA of node: 190.2877 deg Eccentricity: 0.0020980 Arg of perigee: 212.5983 deg Mean anomaly: 147.3920 deg Mean motion: 14.82738619 rev/day Decay rate: 1.90e-06 rev/day^2 Epoch rev: 81526 Checksum: 313
Satellite: NOAA-14 Catalog number: 23455 Epoch time: 09322.73752901 Element set: 0834 Inclination: 098.8982 deg RA of node: 039.7782 deg Eccentricity: 0.0010272 Arg of perigee: 111.4069 deg Mean anomaly: 248.8187 deg Mean motion: 14.13772116 rev/day Decay rate: -2.38e-06 rev/day^2 Epoch rev: 76776 Checksum: 331
